ARIANE 5 DEB, 43383

Orbit data source: Space-Track

ARIANE 5 DEB, 43383 is space debris in HEO originally from a launch on Thu, 12 Jun 2008 UTC launched from the French Guiana (FRGUI). Debris objects in space refer to the collection of defunct objects orbiting the Earth. Examples of debris include non-operational satellites, rocket bodies, and fragments generated from explosions, collisions, or faulty payload assembly.

Loading next visibility...
Identifier
43383, 2008-030F
Orbit
HEO
Country
Flag of FRFR
Related business
Manufacturer
Thales Alenia
Mission
Spacecraft
Bus & Motor
Unknown
Mass
Unknown
Launch date (UTC)
2008-06-12 (17 years ago)
Launch vehicle
Unknown
Launch site
French Guiana (FRGUI)
Object type
Payload
Rocket body
Debris
Shape & HBR
Unknown shape, 1.1 m
Radar Cross Section
Medium (>0.1 m² and <1 m²)

Expand to show TLE details & history
Last TLE update: 1 day ago

TLE from 1 day ago
0 ARIANE 5 DEB
1 43383U 08030F   25290.93702824  .00021751  00000-0  10104+0 0  9996
2 43383   2.1198 115.1223 6903749  47.5315 353.3115  2.62997802142195
Epoch: 2025-10-17T22:29Z
TLE epoch observation values (Epoch: 2025-10-17T22:29:19.239Z)
Latitude
0.0001°
Longitude
111.64973°
Altitude
1,506.457 km
Speed
9.117 km/s
True Right ascension
07h 42m 37s
True Declination
0° 00' 00"
Sunlit
Object was in daylight at epoch
Visualization orbit readout
Latitude
Unknown
Longitude
Unknown
Altitude
Unknown
Speed
Unknown
Apparent Right ascension
Unknown
Apparent Declination
Unknown
Sunlit
N/A
Visualization observer readout
Local Sidereal Time
20:14:02
Azimuth
Unknown
Elevation
Unknown
Doppler factor
Unknown
Orbital elements
Apogee altitude
31,106.47 km
Perigee altitude
487.899 km
Semi-major axis
22,175.322 km
Eccentricity
0.69037
Inclination
2.1198°
RAAN
115.1223°
Arg. of periapsis
47.5315°
True anomaly
313.95226°
Mean anomaly
353.3115°
Eccentric anomaly
339.38362°
Mean motion
0.65726 °/min
Orbital period
547.73 mins
BSTAR
0.10104
Loading maneuver chart data...
Computing Atmospheric mass density...
Loading historical data...
Loading historical data...
Loading historical data...
Loading historical data...
Loading historical data...
Loading historical data...
Loading historical data...

Documentation

Showing up to 5 results
|